(18) Melpomene
ephemeris date magn radius delta ra dec elong phase
Today16 Oct 202511.82.726 AU3.667 AU14h29m-07°11'16.5°6.0°
Opposition8 Jul 20268.92.208 AU1.206 AU19h04m-09°27'166.9°6.0°
(18) Melpomene - 2025-10-16
astro.vanbuitenen.nl


 
-1 year
-1 month
-1 day
Now
+1 day
+1 month
+1 year

The interactive orbit chart above shows the body's path through the solar system and its position at the given date. Green and blue lines are shown perpendicular to the ecliptic plane: Green if the path is above the ecliptic plane, blue if it is below. (Left-click and drag to rotate the view; Right-click and drag to move the view; Use scroll wheel to zoom in our out.)

The orbital elements of Melpomene are:

            e (Eccentricity)                : 0.2181123
            a (Semimajor axis)              : 2.2952637
            i (Inclination)                 : 10.13133
            Ω (Longitude of ascending node) : 150.33418
            ω (Argument of perihelion)      : 228.05743
            M (Mean anomaly)                : 170.57139
            Epoch                           : 2025 May 05

            L (Longitude of perihelion)     : 197.94359
            B (Latitude of perihelion)      : -7.51818
            P (Orbital period in years)     : 3.48            
        

The light curve chart below shows the estimated development of the minor planet's magnitude.


The all-sky chart below shows the path of the minor planet over the same period as the light curve. The current position is marked yellow.





The following chart shows the path of the minor planet in the next few days. The field of view is optimized for (~10x50) binoculars and finderscopes.




Ephemerides:
Date       Time       RA (2000)    DEC (2000)    delta   radius  elong  phase   PA    magn
2025-10-16 00:00 UT   14 29 45.3   -07 11 53     3.667    2.726   16.5    6.0    83   11.8 
2025-10-16 22:14 UT   14 31 11.4   -07 18 60     3.669    2.725   16.0    5.8    82   11.8 
2025-10-17 00:00 UT   14 31 18.3   -07 19 34     3.669    2.725   16.0    5.8    82   11.8 
2025-10-18 00:00 UT   14 32 51.5   -07 27 12     3.671    2.724   15.5    5.6    81   11.8 
2025-10-19 00:00 UT   14 34 25.0   -07 34 49     3.673    2.723   15.0    5.4    80   11.8 
2025-10-20 00:00 UT   14 35 58.8   -07 42 23     3.675    2.722   14.5    5.2    79   11.8 
2025-10-21 00:00 UT   14 37 32.8   -07 49 55     3.676    2.720   14.0    5.1    78   11.8 
2025-10-22 00:00 UT   14 39 07.0   -07 57 24     3.677    2.719   13.5    4.9    76   11.8 
2025-10-23 00:00 UT   14 40 41.4   -08 04 50     3.679    2.718   13.0    4.7    75   11.8 
2025-10-24 00:00 UT   14 42 16.1   -08 12 14     3.680    2.717   12.5    4.5    73   11.7 
2025-10-25 00:00 UT   14 43 51.0   -08 19 36     3.681    2.716   12.0    4.4    71   11.7 
2025-10-26 00:00 UT   14 45 26.2   -08 26 54     3.682    2.715   11.6    4.2    69   11.7 
2025-10-27 00:00 UT   14 47 01.5   -08 34 10     3.682    2.714   11.1    4.0    67   11.7 
2025-10-28 00:00 UT   14 48 37.1   -08 41 23     3.683    2.712   10.7    3.9    65   11.7 
2025-10-29 00:00 UT   14 50 12.9   -08 48 34     3.683    2.711   10.3    3.7    63   11.7 
2025-10-30 00:00 UT   14 51 48.9   -08 55 41     3.683    2.710    9.9    3.6    60   11.7 
2025-10-31 00:00 UT   14 53 25.1   -09 02 45     3.683    2.709    9.5    3.5    58   11.7 
2025-11-01 00:00 UT   14 55 01.5   -09 09 46     3.683    2.708    9.1    3.3    55   11.7 
2025-11-02 00:00 UT   14 56 38.1   -09 16 45     3.683    2.707    8.8    3.2    52   11.7 
2025-11-03 00:00 UT   14 58 14.9   -09 23 40     3.683    2.705    8.5    3.1    48   11.7 
2025-11-04 00:00 UT   14 59 52.0   -09 30 32     3.682    2.704    8.2    3.0    45   11.6 
2025-11-05 00:00 UT   15 01 29.2   -09 37 21     3.682    2.703    7.9    2.9    41   11.6 


    Terminology:
            
    delta:  distance between minor planet and earth in AU
    radius: distance between minor planet and sun in AU
    magn:   magnitude (brightness) estimate    
    ra:     right ascension in hours (24h = 360deg)
    dec:    declination in degrees
    elong:  elongation in degrees (angle sun-earth-minor planet)    
    phase:  phase angle in degrees (angle sun-minor planet-earth)        
    AU:     Astronomical Unit (mean distance between earth and sun: 149597870.7 km
    

Orbital elements provided by the MPC (Minor Planet Center).
Calculations by a modified version of AAPlus, a C# implementation of the AA+ project by PJ Naughter from the algorithms presented in the book "Astronomical Algorithms" by Jean Meeus.
NGC2000 dso catalog and star labels from VizieR as provided by the Strasbourg astronomical Data Center.
Tycho2 catalog from the ESO archive.